Regional Weather Roundup
Issued by NWS Sioux Falls, SD

Home | Current Version | Previous Version | Text Only | Print | Product List | Glossary On
Versions: 1 2 3 4 5 6 7 8 9 10 11 12 13 14 15 16 17 18 19 20 21 22 23 24 25 26 27 28 29 30 31 32 33 34 35 36 37 38 39 40 41 42 43 44 45 46 47 48 49 50
000
ASUS43 KFSD 031110
RWRFSD

WEATHER ROUNDUP FOR SE SOUTH DAKOTA/SW MINNESOTA/NW IOWA
NATIONAL WEATHER SERVICE SIOUX FALLS SD
600 AM CDT TUE MAY 03 2016

NOTE: "FAIR" INDICATES FEW OR NO CLOUDS BELOW 12,000 FEET WITH NO
SIGNIFICANT WEATHER AND OR OBSTRUCTIONS TO VISIBILITY.


SDZ038>040-050-052>070-031200-
SOUTHEAST SOUTH DAKOTA

CITY           SKY/WX    TMP DP  RH WIND       PRES   REMARKS
BROOKINGS      CLEAR     36  35  96 S3        30.00F
CHAMBERLAIN    CLEAR     41  41  99 W6        30.05R
HURON          CLEAR     38  38 100 CALM      30.01F
MADISON        FAIR      37  37 100 NW5       30.02S
MITCHELL       CLEAR     44  42  93 SW5       30.03S
SIOUX FALLS    PTCLDY    35  33  92 CALM      30.02S
WINNER         FAIR      40  36  86 SW3       30.05S
YANKTON        CLEAR     43  39  87 W5        30.03S
$$

MNZ071-072-080-081-089-090-097-098-031200-
SOUTHWEST MINNESOTA

CITY           SKY/WX    TMP DP  RH WIND       PRES   REMARKS
FAIRMONT       CLEAR     45  36  70 W9        30.00S
JACKSON        PTCLDY    43  36  75 W6        30.02S
LUVERNE        CLEAR     37  34  87 CALM      30.02S
MARSHALL       CLEAR     46  38  73 W8        29.99
MONTEVIDEO     CLEAR     45  37  76 NW8       29.99S
PIPESTONE      CLEAR     43  37  81 CALM      30.01S
REDWOOD FALLS  CLEAR     47  37  68 W10       29.97F
TRACY          CLEAR     49  39  69 W8        30.00S
WINDOM         CLEAR     43  37  81 CALM      30.01S
WORTHINGTON    CLEAR     43  37  79 W6        30.02F
$$

IAZ001>003-012>014-020>022-031-032-NEZ013-014-SDZ071-031200-
NORTHWEST IOWA

CITY           SKY/WX    TMP DP  RH WIND       PRES   REMARKS
CHEROKEE       FOG       36  36 100 CALM      30.03S VSB 1/4
DENISON        CLEAR     37  36  93 CALM      30.02S
ESTHERVILLE    CLEAR     41  37  86 W9        30.01S
LE MARS        CLEAR     37  37 100 CALM      30.04S
ORANGE CITY    CLEAR     43  37  81 CALM      30.02S
SHELDON        CLEAR     37  36  93 CALM      30.01S
SIOUX CITY     CLEAR     43  37  79 CALM      30.03S
SPENCER        CLEAR     38  35  89 NW5       30.02S
STORM LAKE     CLEAR     45  36  70 SW7       30.03S
$$

ABBREVIATIONS USED IN REMARKS
   TC - TEMPERATURE IN CELSIUS
  WCI - WIND CHILL INDEX
   HX - HEAT INDEX
  VSB - VISIBILITY




USA.gov is the U.S. government's official web portal to all federal, state and local government web resources and services.